San Luis Obispo, CA

12:12 PM PDT on April 25, 2017 (GMT -0700)
San Luis Obispo County-McChesney

Weather History for KSBP - May, 2013

Change the Weather History Date:

Friday, May 24, 2013

  Actual Average Record
Temperature  
Mean Temperature 56 °F -  
Max Temperature 73 °F 70 °F 93 °F (2001)
Min Temperature 43 °F 47 °F 37 °F (1978)
Degree Days  
Heating Degree Days 8    
Growing Degree Days 6 (Base 50)    
Moisture  
Dew Point 44 °F    
Average Humidity 69    
Maximum Humidity 90    
Minimum Humidity 39    
Precipitation  
Precipitation 0.00 in - - ()
Sea Level Pressure  
Sea Level Pressure 29.99 in    
Wind  
Wind Speed 6 mph (NW)    
Max Wind Speed 22 mph    
Max Gust Speed 28 mph    
Visibility 9 miles    
Events      
Averages and records for this station are not official NWS values.
T = Trace of Precipitation, MM = Missing Value Source: NWS Daily Summary

Daily Weather History Graph

Daily Weather History Graph

Search for Another Location

Airport or City:

Trip Planner

Search our weather history database for the weather conditions in past years. The results will help you decide how hot, cold, wet, or windy it might be!

Date:

Astronomy

May. 24, 2013 Rise Set
Actual Time 5:52 AM PDT 8:06 PM PDT
Civil Twilight 5:23 AM PDT 8:35 PM PDT
Nautical Twilight 4:48 AM PDT 9:11 PM PDT
Astronomical Twilight 4:09 AM PDT 9:49 PM PDT
Moon 7:55 PM PDT (5/24) 5:27 AM PDT (5/24)
Length of Visible Light 15h 12m
Length of Day
14h 14m
Full, 100% of the Moon is Illuminated
May 24
Full
May 24
Full
May 31
Last Quarter
Jun 8
New
Jun 16
First Quarter

Hourly Weather History & Observations

Time (PDT) Temp. Windchill Dew Point Humidity Pressure Visibility Wind Dir Wind Speed Gust Speed Precip Events Conditions
12:56 AM 46.0 °F - 41.0 °F 83% 29.97 in 9.0 mi Calm Calm - N/A   Clear
1:56 AM 44.1 °F - 41.0 °F 89% 29.96 in 8.0 mi Calm Calm - N/A   Clear
2:56 AM 43.0 °F - 39.9 °F 89% 29.95 in 9.0 mi Calm Calm - N/A   Clear
3:56 AM 44.1 °F - 39.9 °F 85% 29.95 in 9.0 mi Calm Calm - N/A   Clear
4:56 AM 45.0 °F 42.6 °F 41.0 °F 86% 29.95 in 9.0 mi Variable 4.6 mph - N/A   Clear
5:56 AM 44.1 °F - 39.9 °F 85% 29.97 in 8.0 mi Calm Calm - N/A   Clear
6:56 AM 48.9 °F - 46.0 °F 90% 29.99 in 6.0 mi NNW 5.8 mph - N/A   Clear
7:56 AM 54.0 °F - 46.0 °F 75% 29.99 in 8.0 mi NW 5.8 mph - N/A   Clear
8:56 AM 59.0 °F - 46.9 °F 64% 30.00 in 9.0 mi NW 8.1 mph - N/A   Clear
9:56 AM 66.0 °F - 45.0 °F 47% 29.99 in 10.0 mi WNW 8.1 mph - N/A   Clear
10:56 AM 70.0 °F - 44.1 °F 39% 29.99 in 10.0 mi WNW 12.7 mph - N/A   Clear
11:56 AM 70.0 °F - 44.1 °F 39% 29.99 in 10.0 mi WNW 16.1 mph - N/A   Clear
12:56 PM 70.0 °F - 46.0 °F 42% 29.98 in 10.0 mi NW 19.6 mph - N/A   Clear
1:56 PM 66.0 °F - 46.0 °F 48% 29.99 in 10.0 mi NNW 19.6 mph 27.6 mph N/A   Clear
2:56 PM 64.9 °F - 46.0 °F 50% 30.00 in 10.0 mi NNW 17.3 mph 26.5 mph N/A   Clear
3:56 PM 64.0 °F - 45.0 °F 50% 29.99 in 10.0 mi NW 18.4 mph - N/A   Clear
4:56 PM 62.1 °F - 45.0 °F 53% 29.99 in 10.0 mi NNW 21.9 mph - N/A   Clear
5:56 PM 60.1 °F - 46.0 °F 60% 29.99 in 10.0 mi NW 17.3 mph - N/A   Clear
6:56 PM 55.9 °F - 45.0 °F 67% 29.98 in 10.0 mi NW 16.1 mph - N/A   Clear
7:56 PM 52.0 °F - 46.0 °F 80% 29.99 in 9.0 mi NW 11.5 mph - N/A   Clear
8:56 PM 51.1 °F - 46.0 °F 83% 30.00 in 9.0 mi NNW 9.2 mph - N/A   Clear
9:56 PM 50.0 °F - 45.0 °F 83% 30.02 in 9.0 mi NNW 11.5 mph - N/A   Clear
10:56 PM 48.9 °F - 45.0 °F 86% 30.02 in 8.0 mi NNW 4.6 mph - N/A   Clear
11:56 PM 48.0 °F - 44.1 °F 86% 30.03 in 8.0 mi Calm Calm - N/A   Clear